Location: Edisto_Beach
(32.4790°N, 80.3350°W)
Time: 01:45:35
(UTC-05:00)

Amateur Radio Satellites - All Passes

Search period start: 18 December 2017 01:15
Search period end: 19 December 2017 01:15
Location: Edisto_Beach, 32.4790°N, 80.3350°W

Satellite Date Start Highest point End Downlink Frequencies (MHz)
Time Altitude Azimuth
DUCHIFAT 1 18 Dec 01:16:30 01:19:57 25° 288° (WNW) 01:23:23 145.980
QB50P2 18 Dec 01:18:07 01:20:49 17° 291° (WNW) 01:23:31 145.880/145.840
SO-50 18 Dec 01:20:45 01:23:46 17° 251° (WSW) 01:26:49 436.795
AO-91 18 Dec 01:26:51 01:29:55 32° 99° (E) 01:33:01 145.960
VELOX 1 18 Dec 01:34:09 01:36:52 16° 265° (W) 01:39:35 145.980
YUBILEINY 18 Dec 01:34:56 01:41:11 22° 82° (E) 01:47:27 435.215
BUGSAT 1 18 Dec 01:41:47 01:45:47 59° 285° (WNW) 01:49:49 437.445
UKube-1 18 Dec 01:52:26 01:56:45 85° 258° (WSW) 02:01:06 .
Gurwin Techsat 1B 18 Dec 01:58:49 02:04:07 65° 102° (ESE) 02:09:22 435.225
PCSat 18 Dec 02:05:55 02:07:00 11° 48° (NE) 02:08:04 145.827
JUGNU 18 Dec 02:07:15 02:11:08 18° 169° (S) 02:15:02 437.505
ITUPSAT 1 18 Dec 02:13:32 02:17:01 21° 68° (ENE) 02:20:30 437.325
50 SAT 18 Dec 02:15:31 02:17:22 15° 264° (W) 02:19:13 437.505
DX 1 18 Dec 02:17:00 02:20:36 25° 263° (W) 02:24:13 434.975-435.025
FALCONSAT 3 18 Dec 02:24:18 02:27:22 25° 209° (SSW) 02:30:25 435.103
MOZHAYETS 4 18 Dec 02:25:17 02:29:32 41° 74° (ENE) 02:33:49
Oscar 19 18 Dec 02:26:58 02:31:55 46° 288° (WNW) 02:36:51 437.125/150
BEESAT 18 Dec 03:18:47 03:23:30 72° 258° (WSW) 03:28:15 436.000
YUBILEINY 18 Dec 03:28:25 03:37:07 64° 278° (W) 03:45:55 435.215
AO-7 18 Dec 03:31:57 03:40:10 56° 103° (ESE) 03:48:19 .
BEESAT 3 18 Dec 03:34:38 03:36:32 13° 51° (NE) 03:38:25 437.485
Gurwin Techsat 1B 18 Dec 03:41:02 03:43:26 13° 296° (WNW) 03:45:49 435.225
PCSat 18 Dec 03:45:42 03:51:09 85° 65° (ENE) 03:56:34 145.827
ITAMSAT 1 18 Dec 03:47:10 03:52:11 49° 100° (E) 03:57:09 435.822/435.867
KKS-1 18 Dec 03:49:48 03:51:49 13° 67° (ENE) 03:53:50 437.445
ITUPSAT 1 18 Dec 03:50:20 03:54:33 32° 262° (W) 03:58:49 437.325
M-CUBED/EXP-1 PRIME 18 Dec 03:51:25 03:55:40 54° 104° (ESE) 03:59:36 437.505
JUGNU 18 Dec 03:54:59 03:59:31 23° 179° (S) 04:04:05 437.505
CUBESAT XI-V 18 Dec 03:58:12 04:02:50 80° 258° (WSW) 04:07:33 437.345
MOZHAYETS 4 18 Dec 04:04:23 04:06:49 14° 266° (W) 04:09:16
STARS 18 Dec 04:22:45 04:23:49 11° 66° (ENE) 04:24:53 437.465
BEESAT 2 18 Dec 04:24:02 04:25:49 13° 50° (NE) 04:27:36 435.950
SRMSAT 18 Dec 04:50:04 04:53:55 18° 168° (SSE) 04:57:47 437.500
DOVE 4 18 Dec 04:59:36 05:03:49 52° 99° (E) 05:07:52 437.250
BEESAT 3 18 Dec 05:10:33 05:14:14 41° 246° (WSW) 05:17:51 437.485
XW-2F 18 Dec 05:22:43 05:23:25 10° 93° (E) 05:24:08 145.980 - 146.000
KKS-1 18 Dec 05:23:37 05:27:54 47° 260° (W) 05:32:13 437.445
NO-84 18 Dec 05:25:13 05:27:54 36° 315° (NW) 05:30:44 435.350 FM
AO-7 18 Dec 05:25:35 05:32:23 29° 299° (WNW) 05:39:11 .
ITAMSAT 1 18 Dec 05:28:03 05:31:11 16° 294° (WNW) 05:34:17 435.822/435.867
M-CUBED/EXP-1 PRIME 18 Dec 05:28:06 05:29:24 11° 300° (WNW) 05:30:40 437.505
XW-2C 18 Dec 05:39:46 05:42:41 21° 96° (E) 05:45:36 145.795 - 145.815
CUTE-I 18 Dec 05:41:30 05:45:22 20° 95° (E) 05:49:12 437.470
JUGNU 18 Dec 05:43:50 05:47:55 20° 189° (S) 05:52:03 437.505
HO-68 18 Dec 05:53:51 05:57:03 13° 92° (E) 06:00:15 435.675
STARS 18 Dec 05:55:19 05:59:37 54° 259° (W) 06:03:55 437.465
STRAND 1 18 Dec 05:56:29 05:59:24 16° 66° (ENE) 06:02:20 437.568
BEESAT 2 18 Dec 05:59:56 06:03:46 46° 246° (WSW) 06:07:33 435.950
NUDT-PHONESAT 18 Dec 06:16:28 06:20:01 41° 99° (E) 06:23:33 437.300
LilacSat-2 18 Dec 06:20:24 06:24:18 86° 106° (ESE) 06:28:09 437.200
KAITUO 1B 18 Dec 06:27:12 06:30:58 64° 101° (E) 06:34:41 145.475/437.950
XW-2D 18 Dec 06:29:19 06:33:09 75° 283° (WNW) 06:36:58 145.860 - 145.880
AO-85 18 Dec 06:30:42 06:35:39 79° 61° (ENE) 06:40:54 145.980
SRMSAT 18 Dec 06:37:48 06:42:29 24° 178° (S) 06:47:11 437.500
DOVE 4 18 Dec 06:40:42 06:40:55 10° 295° (WNW) 06:41:08 437.250
XW-2B 18 Dec 06:45:28 06:49:10 46° 285° (WNW) 06:52:50 145.730 - 145.750
XW-2F 18 Dec 06:54:04 06:57:38 37° 285° (WNW) 07:01:10 145.980 - 146.000
SEEDS 18 Dec 07:07:39 07:11:31 34° 98° (E) 07:15:20 437.485
XW-2C 18 Dec 07:13:52 07:16:42 20° 289° (WNW) 07:19:31 145.795 - 145.815
AAUSAT CUBESAT 2 18 Dec 07:15:19 07:17:53 16° 94° (E) 07:20:26 437.432
FO-29 18 Dec 07:16:01 07:23:06 40° 69° (ENE) 07:30:14 435.910
CUTE-I 18 Dec 07:20:33 07:25:27 39° 289° (WNW) 07:30:21 437.470
UWE-3 18 Dec 07:22:55 07:26:44 28° 97° (E) 07:30:37 435.000/436.395/437.385
XW-2A 18 Dec 07:23:23 07:25:42 17° 96° (E) 07:28:01 145.665 - 145.685
CUBEBUG 2 18 Dec 07:31:14 07:35:34 69° 100° (E) 07:40:02 437.445
STRAND 1 18 Dec 07:33:08 07:38:06 51° 260° (W) 07:43:04 437.568
JUGNU 18 Dec 07:35:15 07:36:16 10° 198° (SSW) 07:37:17 437.505
HO-68 18 Dec 07:38:12 07:45:23 83° 286° (WNW) 07:52:31 435.675
CUTE 1.7 + AOD 2 18 Dec 07:38:17 07:42:28 53° 285° (WNW) 07:46:36 437.475
ZACube-1 18 Dec 07:39:13 07:42:41 22° 96° (E) 07:46:09 437.345
O/OREOS (USA 219) 18 Dec 07:39:14 07:43:49 84° 108° (ESE) 07:48:24 437.305
Oscar 11 18 Dec 07:52:31 07:55:15 16° 94° (E) 07:57:58 .
AO-73 18 Dec 08:09:59 08:14:13 44° 99° (E) 08:18:31 145.935
UNISAT 6 18 Dec 08:18:25 08:20:02 12° 67° (ENE) 08:21:40 437.425
SRMSAT 18 Dec 08:26:40 08:31:05 21° 188° (S) 08:35:29 437.500
SEEDS 18 Dec 08:44:22 08:46:50 15° 291° (WNW) 08:49:18 437.485
AAUSAT CUBESAT 2 18 Dec 08:49:42 08:53:19 30° 287° (WNW) 08:56:57 437.432
XW-2A 18 Dec 08:55:49 08:58:15 18° 288° (WNW) 09:00:39 145.665 - 145.685
UWE-3 18 Dec 08:59:44 09:02:58 20° 289° (WNW) 09:06:16 435.000/436.395/437.385
FO-29 18 Dec 09:00:54 09:07:55 38° 264° (W) 09:15:06 435.910
ISS 18 Dec 09:01:46 09:04:31 25° 129° (SE) 09:07:16 437.550
DELFI C3 18 Dec 09:13:16 09:16:29 24° 96° (E) 09:19:40 145.870
ZACube-1 18 Dec 09:15:09 09:18:50 26° 288° (WNW) 09:22:34 437.345
PRISM 18 Dec 09:17:03 09:19:30 15° 69° (ENE) 09:21:58 437.425
Oscar 11 18 Dec 09:27:30 09:31:24 33° 287° (WNW) 09:35:18 .
HO-68 18 Dec 09:29:12 09:32:00 13° 302° (WNW) 09:34:47 435.675
nSIGHT-1 18 Dec 09:40:41 09:43:52 67° 317° (NW) 09:47:04 .
TIGRISAT 18 Dec 09:47:38 09:51:51 57° 260° (W) 09:56:02 435.000
AO-73 18 Dec 09:47:51 09:50:01 14° 292° (WNW) 09:52:13 145.935
UNISAT 6 18 Dec 09:52:12 09:56:19 45° 261° (W) 10:00:24 437.425
AIST 2D 18 Dec 10:04:31 10:06:39 16° 71° (ENE) 10:08:49 435.315
Max Valier Satellite 18 Dec 10:05:38 10:09:23 85° 102° (ESE) 10:13:07 145.860
SRMSAT 18 Dec 10:17:19 10:19:36 12° 197° (SSW) 10:21:54 437.500
EO-88 18 Dec 10:23:54 10:27:34 83° 281° (WNW) 10:31:13 145.990 - 145.960
QB50P2 18 Dec 10:31:06 10:33:09 13° 68° (ENE) 10:35:12 145.880/145.840
ESTCUBE 1 18 Dec 10:38:09 10:39:19 11° 92° (E) 10:40:30 437.505/2401.250
ISS 18 Dec 10:38:15 10:40:56 23° 323° (NW) 10:43:37 437.550
LO-87 18 Dec 10:42:27 10:44:25 14° 95° (E) 10:46:23 145.935 - 145.965
DELFI C3 18 Dec 10:48:18 10:50:59 18° 290° (WNW) 10:53:40 145.870
PRISM 18 Dec 10:50:41 10:54:26 33° 262° (W) 10:58:12 437.425
NANOSAT C BR1 18 Dec 10:57:01 11:00:11 21° 71° (ENE) 11:03:21 145.865
EO-79 18 Dec 11:14:21 11:18:16 40° 74° (ENE) 11:22:11 145.935-145.965
AIST 2D 18 Dec 11:36:51 11:39:35 21° 264° (W) 11:42:21 435.315
POLYITAN 1 18 Dec 11:38:14 11:42:25 83° 75° (ENE) 11:46:36 437.675
SPROUT 18 Dec 11:59:26 12:02:40 21° 96° (E) 12:05:54 437.525
NO-84 18 Dec 12:01:17 12:03:35 15° 39° (NE) 12:05:57 435.350 FM
Oscar 19 18 Dec 12:02:06 12:05:09 16° 66° (ENE) 12:08:12 437.125/150
DUCHIFAT 1 18 Dec 12:02:33 12:06:40 64° 259° (W) 12:10:47 145.980
QB50P2 18 Dec 12:04:38 12:08:32 38° 261° (W) 12:12:29 145.880/145.840
ESTCUBE 1 18 Dec 12:11:56 12:16:21 52° 285° (WNW) 12:20:44 437.505/2401.250
LO-87 18 Dec 12:14:52 12:17:45 24° 287° (WNW) 12:20:38 145.935 - 145.965
AO-91 18 Dec 12:19:12 12:22:48 21° 72° (ENE) 12:26:09 145.960
BUGSAT 1 18 Dec 12:26:36 12:30:27 46° 75° (ENE) 12:34:19 437.445
NANOSAT C BR1 18 Dec 12:32:23 12:35:43 23° 263° (W) 12:39:04 145.865
RS-15 18 Dec 12:44:11 12:54:44 36° 105° (ESE) 13:05:16 29.354- 29.394
EO-79 18 Dec 12:52:29 12:54:08 12° 267° (W) 12:55:47 145.935-145.965
Gurwin Techsat 1B 18 Dec 13:15:11 13:20:26 66° 75° (ENE) 13:25:43 435.225
VELOX 1 18 Dec 13:26:37 13:30:57 58° 285° (WNW) 13:35:14 145.980
50 SAT 18 Dec 13:34:37 13:37:17 25° 98° (E) 13:39:56 437.505
SPROUT 18 Dec 13:35:00 13:38:26 24° 289° (WNW) 13:41:52 437.525
NO-84 18 Dec 13:37:15 13:41:03 57° 232° (SW) 13:45:05 435.350 FM
Oscar 19 18 Dec 13:39:02 13:44:00 49° 260° (W) 13:49:00 437.125/150
YUBILEINY 18 Dec 13:44:28 13:53:02 53° 79° (E) 14:01:29 435.215
UKube-1 18 Dec 13:44:34 13:47:55 22° 96° (E) 13:51:14 .
SO-50 18 Dec 13:49:08 13:53:13 37° 113° (ESE) 13:57:21 436.795
AO-91 18 Dec 13:54:46 13:59:03 30° 261° (W) 14:03:00 145.960
DX 1 18 Dec 14:08:40 14:13:00 79° 102° (ESE) 14:17:19 434.975-435.025
AO-7 18 Dec 14:25:46 14:33:40 52° 67° (ENE) 14:41:39 .
MOZHAYETS 4 18 Dec 14:26:12 14:28:37 14° 94° (E) 14:31:02
M-CUBED/EXP-1 PRIME 18 Dec 14:31:47 14:35:40 33° 67° (ENE) 14:39:45 437.505
RS-15 18 Dec 14:54:26 15:06:33 61° 303° (WNW) 15:18:39 29.354- 29.394
Gurwin Techsat 1B 18 Dec 14:58:56 15:00:44 12° 268° (W) 15:02:32 435.225
ITAMSAT 1 18 Dec 15:00:29 15:05:28 48° 73° (ENE) 15:10:28 435.822/435.867
UKube-1 18 Dec 15:20:20 15:23:48 24° 290° (WNW) 15:27:16 .
BEESAT 18 Dec 15:23:29 15:27:59 41° 99° (E) 15:32:27 436.000
SO-50 18 Dec 15:30:37 15:33:46 19° 308° (NW) 15:36:56 436.795
YUBILEINY 18 Dec 15:42:14 15:49:14 28° 276° (W) 15:56:13 435.215
ITUPSAT 1 18 Dec 15:54:36 15:59:23 90° 283° (WNW) 16:04:11 437.325
DOVE 4 18 Dec 15:59:21 16:04:06 36° 73° (ENE) 16:08:43 437.250
CUBESAT XI-V 18 Dec 15:59:30 16:03:49 35° 98° (E) 16:08:06 437.345
MOZHAYETS 4 18 Dec 16:01:31 16:05:54 43° 286° (WNW) 16:10:17
M-CUBED/EXP-1 PRIME 18 Dec 16:06:56 16:10:02 19° 262° (W) 16:13:15 437.505
nSIGHT-1 18 Dec 16:11:46 16:13:49 16° 33° (NNE) 16:15:51 .
AO-7 18 Dec 16:19:39 16:26:34 29° 262° (W) 16:33:35 .
PCSat 18 Dec 16:40:55 16:44:53 21° 106° (ESE) 16:48:51 145.827
ITAMSAT 1 18 Dec 16:41:59 16:45:06 16° 266° (W) 16:48:13 435.822/435.867
LilacSat-2 18 Dec 16:58:15 17:01:06 21° 71° (ENE) 17:04:00 437.200
CUTE-I 18 Dec 16:58:53 17:02:56 22° 68° (ENE) 17:07:00 437.470
BEESAT 18 Dec 17:02:22 17:05:22 17° 293° (WNW) 17:08:22 436.000
KAITUO 1B 18 Dec 17:03:39 17:05:48 15° 70° (ENE) 17:07:58 145.475/437.950
XW-2D 18 Dec 17:06:07 17:09:13 24° 72° (ENE) 17:12:20 145.860 - 145.880
ISS 18 Dec 17:08:59 17:12:07 41° 41° (NE) 17:15:15 437.550
RS-15 18 Dec 17:14:41 17:22:15 18° 329° (NNW) 17:29:48 29.354- 29.394
KKS-1 18 Dec 17:18:53 17:23:08 45° 100° (E) 17:27:20 437.445
XW-2B 18 Dec 17:21:43 17:25:13 37° 74° (ENE) 17:28:45 145.730 - 145.750
XW-2F 18 Dec 17:29:37 17:33:13 45° 75° (ENE) 17:36:51 145.980 - 146.000
CUBESAT XI-V 18 Dec 17:37:40 17:40:51 18° 292° (WNW) 17:44:01 437.345
DOVE 4 18 Dec 17:37:42 17:41:43 22° 265° (W) 17:45:41 437.250
nSIGHT-1 18 Dec 17:47:06 17:50:09 41° 229° (SW) 17:53:11 .
XW-2C 18 Dec 17:49:05 17:52:51 84° 256° (WSW) 17:56:41 145.795 - 145.815
STARS 18 Dec 17:49:08 17:53:09 36° 99° (E) 17:57:10 437.465
O/OREOS (USA 219) 18 Dec 17:53:55 17:58:24 73° 71° (ENE) 18:02:51 437.305
SEEDS 18 Dec 17:56:06 17:58:14 14° 68° (ENE) 18:00:22 437.485
HO-68 18 Dec 18:01:33 18:08:19 46° 69° (ENE) 18:15:05 435.675
UWE-3 18 Dec 18:17:27 18:19:07 12° 68° (ENE) 18:20:46 435.000/436.395/437.385
PCSat 18 Dec 18:22:51 18:27:55 41° 300° (WNW) 18:33:02 145.827
NUDT-PHONESAT 18 Dec 18:24:00 18:27:28 41° 261° (W) 18:31:00 437.300
CUBEBUG 2 18 Dec 18:25:11 18:28:50 30° 73° (ENE) 18:32:27 437.445
CUTE 1.7 + AOD 2 18 Dec 18:25:43 18:29:52 56° 76° (ENE) 18:34:04 437.475
LilacSat-2 18 Dec 18:32:25 18:35:14 20° 265° (W) 18:38:04 437.200
KAITUO 1B 18 Dec 18:36:18 18:39:28 26° 263° (W) 18:42:42 145.475/437.950
CUTE-I 18 Dec 18:37:44 18:42:41 38° 261° (W) 18:47:39 437.470
XW-2D 18 Dec 18:40:55 18:43:19 16° 265° (W) 18:45:44 145.860 - 145.880
ISS 18 Dec 18:46:47 18:48:17 13° 234° (SW) 18:49:47 437.550
BEESAT 3 18 Dec 18:54:45 18:58:42 87° 298° (WNW) 19:02:43 437.485
KKS-1 18 Dec 18:57:10 18:59:14 13° 293° (WNW) 19:01:17 437.445
XW-2B 18 Dec 18:58:53 18:59:29 10° 267° (W) 19:00:06 145.730 - 145.750
AO-73 18 Dec 19:01:57 19:04:47 18° 70° (ENE) 19:07:36 145.935
FALCONSAT 3 18 Dec 19:13:55 19:16:59 25° 151° (SSE) 19:20:03 435.103
XW-2A 18 Dec 19:21:00 19:24:16 59° 77° (ENE) 19:27:36 145.665 - 145.685
STARS 18 Dec 19:26:33 19:29:08 16° 292° (WNW) 19:31:44 437.465
SEEDS 18 Dec 19:29:34 19:33:30 39° 261° (W) 19:37:30 437.485
AAUSAT CUBESAT 2 18 Dec 19:34:01 19:38:11 90° 82° (E) 19:42:23 437.432
RS-15 18 Dec 19:41:09 19:42:36 10° 8° (N) 19:44:04 29.354- 29.394
BEESAT 2 18 Dec 19:45:50 19:49:49 89° 119° (ESE) 19:53:52 435.950
STRAND 1 18 Dec 19:48:01 19:53:08 80° 103° (ESE) 19:58:13 437.568
HO-68 18 Dec 19:50:11 19:56:06 28° 263° (W) 20:02:04 435.675
UWE-3 18 Dec 19:51:15 19:55:10 40° 261° (W) 19:59:04 435.000/436.395/437.385
CUBEBUG 2 18 Dec 20:02:50 20:05:26 16° 265° (W) 20:08:03 437.445
ZACube-1 18 Dec 20:05:35 20:09:39 57° 260° (W) 20:13:44 437.345
FO-29 18 Dec 20:16:45 20:22:51 44° 97° (E) 20:28:15 435.910
Oscar 11 18 Dec 20:16:47 20:21:05 81° 258° (WSW) 20:25:25 .
AO-73 18 Dec 20:37:19 20:40:46 26° 263° (W) 20:44:17 145.935
Max Valier Satellite 18 Dec 20:40:39 20:43:08 18° 71° (ENE) 20:45:38 145.860
AO-85 18 Dec 20:41:17 20:45:07 76° 115° (ESE) 20:49:07 145.980
FALCONSAT 3 18 Dec 20:52:09 20:55:50 86° 346° (NNW) 20:59:33 435.103
EO-88 18 Dec 20:57:27 21:00:05 19° 71° (ENE) 21:02:44 145.990 - 145.960
DELFI C3 18 Dec 21:27:12 21:31:08 62° 259° (W) 21:35:07 145.870
TIGRISAT 18 Dec 21:43:14 21:47:23 39° 99° (E) 21:51:36 435.000
UNISAT 6 18 Dec 21:47:42 21:52:01 50° 100° (E) 21:56:23 437.425
RS-15 18 Dec 21:51:26 22:01:13 29° 43° (NE) 22:10:31 29.354- 29.394
FO-29 18 Dec 22:02:35 22:07:27 23° 296° (WNW) 22:11:53 435.910
Max Valier Satellite 18 Dec 22:13:58 22:16:46 21° 264° (W) 22:19:35 145.860
SO-50 18 Dec 22:26:08 22:28:00 12° 48° (NE) 22:29:53 436.795
EO-88 18 Dec 22:30:56 22:33:34 19° 264° (W) 22:36:13 145.990 - 145.960
FALCONSAT 3 18 Dec 22:31:29 22:35:05 51° 359° (N) 22:38:42 435.103
PRISM 18 Dec 22:35:58 22:39:52 43° 100° (E) 22:43:43 437.425
LO-87 18 Dec 22:45:13 22:48:41 57° 76° (ENE) 22:52:09 145.935 - 145.965
AIST 2D 18 Dec 23:05:16 23:08:31 33° 98° (E) 23:11:43 435.315
ESTCUBE 1 18 Dec 23:06:14 23:10:43 79° 77° (ENE) 23:15:16 437.505/2401.250
TIGRISAT 18 Dec 23:21:12 23:23:42 15° 291° (WNW) 23:26:14 435.000
UNISAT 6 18 Dec 23:26:35 23:28:16 12° 293° (WNW) 23:29:57 437.425
POLYITAN 1 18 Dec 23:28:16 23:31:18 19° 96° (E) 23:34:19 437.675
DUCHIFAT 1 18 Dec 23:51:10 23:54:44 26° 97° (E) 23:58:18 145.980
QB50P2 18 Dec 23:53:31 23:57:35 44° 99° (E) 00:01:38 145.880/145.840
RS-15 19 Dec 00:03:15 00:14:52 78° 246° (WSW) 00:25:52 29.354- 29.394
SO-50 19 Dec 00:04:14 00:08:55 73° 244° (WSW) 00:13:39 436.795
FALCONSAT 3 19 Dec 00:10:40 00:14:21 82° 15° (NNE) 00:18:02 435.103
PRISM 19 Dec 00:13:22 00:14:41 11° 293° (WNW) 00:15:58 437.425
VELOX 1 19 Dec 00:18:38 00:23:03 67° 76° (ENE) 00:27:28 145.980
NANOSAT C BR1 19 Dec 00:19:53 00:24:07 75° 103° (ESE) 00:28:19 145.865
SPROUT 19 Dec 00:22:30 00:26:41 59° 259° (W) 00:30:52 437.525
UKube-1 19 Dec 00:36:38 00:37:48 11° 66° (ENE) 00:38:57 .
EO-79 19 Dec 00:38:37 00:42:44 53° 285° (WNW) 00:46:51 145.935-145.965
AIST 2D 19 Dec 00:40:42 00:41:16 10° 291° (WNW) 00:41:51 435.315
DX 1 19 Dec 00:59:30 01:03:30 36° 73° (ENE) 01:07:31 434.975-435.025
POLYITAN 1 19 Dec 01:03:25 01:07:00 27° 288° (WNW) 01:10:35 437.675
